Regional Weather Roundup
Issued by NWS Little Rock, AR

Home | Current Version | Previous Version | Graphics & Text | Print | Product List | Glossary On
Versions: 1 2 3 4 5 6 7 8 9 10 11 12 13 14 15 16 17 18 19 20 21 22 23 24 25 26 27 28 29 30 31 32 33 34 35 36 37 38 39 40 41 42 43 44 45 46 47 48 49 50
975
ASUS44 KLZK 060005
RWRLZK

WEATHER ROUNDUP FOR ARKANSAS
NATIONAL WEATHER SERVICE LITTLE ROCK AR
600 PM CST FRI FEB 05 2016

NOTE: "FAIR" INDICATES FEW OR NO CLOUDS BELOW 12,000 FEET WITH NO
SIGNIFICANT WEATHER AND/OR OBSTRUCTIONS TO VISIBILITY.

ARZ001-003-010-029-060100-
NORTHWEST ARKANSAS

CITY           SKY/WX    TMP DP  RH WIND       PRES   REMARKS
FAYETTEVILLE   CLOUDY    43  14  31 S3        30.31S
6HR MIN TEMP:  41; 6HR MAX TEMP:  51;

FORT SMITH     CLEAR     51   9  18 S3        30.32S
6HR MIN TEMP:  49; 6HR MAX TEMP:  56;

HARRISON       CLOUDY    46  13  26 SW5       30.31S
6HR MIN TEMP:  46; 6HR MAX TEMP:  53;

BENTONVILLE    CLOUDY    46  12  25 CALM      30.31S
ROGERS         CLOUDY    44  16  32 S6        30.31S
6HR MIN TEMP:  44; 6HR MAX TEMP:  52;

SILOAM SPGS    CLOUDY    46  14  27 S5        30.31S
6HR MIN TEMP:  46; 6HR MAX TEMP:  54;

HIGHFILL       CLOUDY    44  16  32 S5        30.30S
6HR MIN TEMP:  44; 6HR MAX TEMP:  53;

SPRINGDALE     CLEAR     45  14  29 S6        30.32S
$$

ARZ004-005-016-060100-
NORTH CENTRAL ARKANSAS

CITY           SKY/WX    TMP DP  RH WIND       PRES   REMARKS
BATESVILLE     CLEAR     48  16  27 SW3       30.37S
6HR MIN TEMP:  48; 6HR MAX TEMP:  55;

FLIPPIN        CLOUDY    48  14  25 CALM      30.30S
6HR MIN TEMP:  48; 6HR MAX TEMP:  55;

MTN HOME       CLOUDY    47  14  26 CALM      30.31S
6HR MIN TEMP:  47; 6HR MAX TEMP:  54;

$$

ARZ040-041-060100-
WEST CENTRAL ARKANSAS

CITY           SKY/WX    TMP DP  RH WIND       PRES   REMARKS
MENA           CLEAR     46  18  31 CALM      30.33S
MOUNT IDA      CLEAR     47  15  27 CALM      30.32S
6HR MIN TEMP:  47; 6HR MAX TEMP:  54;

$$

ARZ009-017-025-026-028-060100-
NORTHEAST ARKANSAS

CITY           SKY/WX    TMP DP  RH WIND       PRES   REMARKS
CORNING        FAIR      45  28  53 S10       30.36S
JONESBORO      PTCLDY    44  26  49 S6        30.37F
6HR MIN TEMP:  44; 6HR MAX TEMP:  51;

NEWPORT        CLOUDY    42  28  58 S8        30.38S
6HR MIN TEMP:  42; 6HR MAX TEMP:  56;

WALNUT RIDGE   CLOUDY    45  25  45 S10       30.36S
6HR MIN TEMP:  45; 6HR MAX TEMP:  54;

BLYTHEVILLE    CLOUDY    46  32  58 S7        30.39S
6HR MIN TEMP:  46; 6HR MAX TEMP:  56;

$$

ARZ022-023-033-042-044-060100-
CENTRAL ARKANSAS

CITY           SKY/WX    TMP DP  RH WIND       PRES   REMARKS
LITTLE ROCK    MOCLDY    48  15  26 SE5       30.37F
6HR MIN TEMP:  48; 6HR MAX TEMP:  56;

JACKSONVILLE   PTCLDY    48  18  29 SE3       30.36S
6HR MIN TEMP:  48; 6HR MAX TEMP:  54;

SEARCY         PTCLDY    43  23  45 S6        30.39S
6HR MIN TEMP:  43; 6HR MAX TEMP:  55;

HOT SPRINGS    CLEAR     50  15  24 CALM      30.36S
6HR MIN TEMP:  50; 6HR MAX TEMP:  54;

RUSSELLVILLE   CLEAR     44  18  35 CALM      30.34S
6HR MIN TEMP:  44; 6HR MAX TEMP:  55;

CLINTON        FAIR      43  27  52 CALM      30.36S
$$

ARZ036-060100-
EAST ARKANSAS

CITY           SKY/WX    TMP DP  RH WIND       PRES   REMARKS
WEST MEMPHIS   MOCLDY    45  29  53 S5        30.39S
6HR MIN TEMP:  44; 6HR MAX TEMP:  52;

$$

ARZ050-053-066-070-073-060100-
SOUTHWEST ARKANSAS

CITY           SKY/WX    TMP DP  RH WIND       PRES   REMARKS
ARKADELPHIA    FAIR      45  32  60 CALM      30.37S
6HR MIN TEMP:  45; 6HR MAX TEMP:  56;

CAMDEN         PTCLDY    46  21  36 NE3       30.36F
TEXARKANA      CLEAR     48  20  32 E3        30.35S
6HR MIN TEMP:  48; 6HR MAX TEMP:  55;

EL DORADO      PTCLDY    49  21  33 E3        30.36S
6HR MIN TEMP:  49; 6HR MAX TEMP:  56;

DE QUEEN       CLEAR     49  19  30 CALM      30.33F
6HR MIN TEMP:  49; 6HR MAX TEMP:  55;

$$

ARZ056-057-069-060100-
SOUTHEAST ARKANSAS

CITY           SKY/WX    TMP DP  RH WIND       PRES   REMARKS
PINE BLUFF     CLOUDY    46  28  49 SE8       30.37F
6HR MIN TEMP:  46; 6HR MAX TEMP:  55;

STUTTGART      CLOUDY    48  25  40 SE7       30.38F
6HR MIN TEMP:  48; 6HR MAX TEMP:  55;

MONTICELLO     PTCLDY    48  20  32 SE3       30.37F
6HR MIN TEMP:  48; 6HR MAX TEMP:  56;


$$






USA.gov is the U.S. government's official web portal to all federal, state and local government web resources and services.